Location: Coll
(42.4728°N, 0.7714°E)
Time: 12:02:54
(UTC+00:00)

USA 238 DEB - Pass Details

Date: 23 October 2020
Orbit: 1001 x 1211 km, 63.5° (Epoch: 22 November)

Event Time Altitude Azimuth Distance (km) Brightness Sun altitude
Exits shadow 04:28:00 35° 244° (WSW) 1,584 4.1 -21.2°
Maximum altitude 04:30:46 62° 310° (NW) 1,163 3.6 -20.7°
Drops below altitude 10° 04:37:35 10° 31° (NNE) 2,921 6.4 -19.5°
Sets 04:40:21 0° 35° (NE) 3,912 7.2 -19.0°
